Location: ??
(35.4824°N, 139.4679°E)
Time: 21:32:42
(UTC+00:00)

Cosmos 2026 Rocket - Pass Details

Date: 29 October 2020
Orbit: 939 x 1002 km, 82.9° (Epoch: 24 November)

Event Time Altitude Azimuth Distance (km) Brightness Sun altitude
Rises 19:55:40 0° 200° (SSW) 3,701 6.9 -14.0°
Reaches altitude 10° 19:58:16 10° 206° (SSW) 2,760 6.2 -13.5°
Maximum altitude 20:04:23 49° 280° (W) 1,274 4.2 -12.3°
Drops below altitude 10° 20:10:32 10° 354° (N) 2,775 6.2 -11.0°
Sets 20:13:11 0° 0° (N) 3,724 7.0 -10.5°
